Regional Weather Roundup
Issued by NWS

Home | Current Version | Previous Version | Text Only | Print | Product List | Glossary On
Versions: 1 2 3 4 5 6 7 8 9 10 11 12 13 14 15 16 17 18 19 20 21 22 23 24 25 26 27 28 29 30 31 32 33 34 35 36 37 38 39 40 41 42 43 44 45 46 47 48 49 50
000
ASUS43 KMKX 241811
RWRWI

WISCONSIN REGIONAL WEATHER ROUNDUP
NATIONAL WEATHER SERVICE MILWAUKEE/SULLIVAN WI
100 PM CDT SUN JUL 24 2016

NOTE: "FAIR" INDICATES FEW OR NO CLOUDS BELOW 12,000 FEET WITH NO
SIGNIFICANT WEATHER AND/OR OBSTRUCTIONS TO VISIBILITY.

WIZ001-002-006>008-014>016-023>028-241900-
NORTHWEST WISCONSIN

CITY           SKY/WX    TMP DP  RH WIND       PRES   REMARKS
SUPERIOR ARPT  MOSUNNY   80  64  57 W16       29.80S HX  82
6HR MIN TEMP:  63; 6HR MAX TEMP:  82;

ASHLAND        MOSUNNY   84  63  49 W15       29.79R HX  85
6HR MIN TEMP:  69; 6HR MAX TEMP:  84;

HAYWARD        MOSUNNY   80  64  58 W10       29.84R HX  82
6HR MIN TEMP:  67; 6HR MAX TEMP:  80;

SIREN          MOSUNNY   79  61  53 NW15G25   29.87R HX  80
CUMBERLAND     MOSUNNY   79  61  53 W14G23    29.86S HX  80
RICE LAKE      SUNNY     79  64  59 W10G20    29.87S HX  81
6HR MIN TEMP:  68; 6HR MAX TEMP:  80;

CHETEK         MOSUNNY   82  65  56 W13G22    29.86R HX  83
6HR MIN TEMP:  68; 6HR MAX TEMP:  82;

LADYSMITH      MOSUNNY   82  64  53 W12       29.87R HX  83
6HR MIN TEMP:  70; 6HR MAX TEMP:  82;

EAU CLAIRE     MOSUNNY   84  65  52 W16G23    29.84S HX  86
6HR MIN TEMP:  71; 6HR MAX TEMP:  84;

MENOMONIE      SUNNY     83  67  58 W14G20    29.86S HX  86
6HR MIN TEMP:  71; 6HR MAX TEMP:  83;

NEW RICHMOND   SUNNY     82  61  49 NW15      29.88S HX  82
6HR MIN TEMP:  69; 6HR MAX TEMP:  82;

OSCEOLA        SUNNY     80  62  52 W15G22    29.91R HX  81
6HR MIN TEMP:  69; 6HR MAX TEMP:  81;

$$

WIZ003>005-009-010-017-018-241900-
NORTH CENTRAL WISCONSIN

CITY           SKY/WX    TMP DP  RH WIND       PRES   REMARKS
MANITOWISH WTR MOSUNNY   78  69  72 W9        29.82S HX  80
6HR MIN TEMP:  66; 6HR MAX TEMP:  78;

ARBOR VITAE    MOSUNNY   80  69  70 W9        29.83F HX  83
6HR MIN TEMP:  69; 6HR MAX TEMP:  80;

WOODRUFF       MOSUNNY   80  69  70 W9        29.83F HX  83
6HR MIN TEMP:  69; 6HR MAX TEMP:  80;

RHINELANDER    CLOUDY    78  69  73 W7        29.84S HX  80
6HR MIN TEMP:  72; 6HR MAX TEMP:  79; 6HR PCP:  0.01;

EAGLE RIVER    PTSUNNY   77  67  72 SW12      29.83S
6HR MIN TEMP:  67; 6HR MAX TEMP:  77;

LAND O LAKES   PTSUNNY   80  66  61 W10       29.83S HX  82
6HR MIN TEMP:  68; 6HR MAX TEMP:  80; 6HR PCP:  0.02;

PHILLIPS       MOSUNNY   79  68  70 NW9       29.84R HX  81
6HR MIN TEMP:  67; 6HR MAX TEMP:  79;

TOMAHAWK       CLOUDY    78  69  74 W7        29.84S HX  80
6HR MIN TEMP:  68; 6HR MAX TEMP:  78;

MEDFORD        PTSUNNY   78  71  80 W10G18    29.86R
6HR MIN TEMP:  69; 6HR MAX TEMP:  80;

MERRILL        CLOUDY    78  74  89 NW7       29.84S HX  80
6HR MIN TEMP:  70; 6HR MAX TEMP:  78; 6HR PCP:  0.01;

$$

WIZ029-030-035-036-043>047-241900-
CENTRAL WISCONSIN

CITY           SKY/WX    TMP DP  RH WIND       PRES   REMARKS
WAUSAU         CLOUDY    77  72  84 NW8       29.82S
6HR MIN TEMP:  70; 6HR MAX TEMP:  76;

MOSINEE        CLOUDY    75  73  94 W7        29.85R
MARSHFIELD     CLOUDY    80  71  74 W8        29.86R HX  84
6HR MIN TEMP:  72; 6HR MAX TEMP:  80; 6HR PCP: TRACE;

STEVENS POINT  LGT RAIN  75  74  95 W9        29.84R
6HR MIN TEMP:  70; 6HR MAX TEMP:  76; 6HR PCP:  0.09;

WAUPACA        CLOUDY    84  79  84 W7        29.81S HX  97
6HR MIN TEMP:  73; 6HR MAX TEMP:  85;

WAUTOMA        CLOUDY    85  78  80 SW10      29.82S HX  96
6HR MIN TEMP:  72; 6HR MAX TEMP:  86;

WISC RAPIDS    MOSUNNY   85  73  67 NW8       29.85R HX  91
6HR MIN TEMP:  73; 6HR MAX TEMP:  86; 6HR PCP: TRACE;

CAMP DOUGLAS   MOSUNNY   87  75  68 W8        29.83R HX  96
6HR MIN TEMP:  75; 6HR MAX TEMP:  87; 6HR PCP: TRACE;

$$

WIZ011>013-019>022-031-037>040-048>050-241900-
NORTHEAST WISCONSIN

CITY           SKY/WX    TMP DP  RH WIND       PRES   REMARKS
ANTIGO         CLOUDY    74  74 100 W5        29.84R FOG
6HR MIN TEMP:  69; 6HR MAX TEMP:  74;

SHAWANO        CLOUDY    81  75  83 S3        29.80F HX  86
6HR MIN TEMP:  73; 6HR MAX TEMP:  81;

OCONTO         CLOUDY    79  79 100 SW10      29.79S HX  84
STURGEON BAY   CLOUDY    75  72  90 S10       29.81R
6HR MIN TEMP:  71; 6HR MAX TEMP:  81;

GREEN BAY      CLOUDY    76  76 100 S8        29.81R
6HR MIN TEMP:  72; 6HR MAX TEMP:  76; 6HR PCP: TRACE;

MANITOWOC      CLOUDY    73  70  90 S17       29.83F FOG
6HR MIN TEMP:  70; 6HR MAX TEMP:  73; 6HR PCP:  0.18;

APPLETON       CLOUDY    81  79  94 SW7       29.80F HX  89
CLINTONVILLE   CLOUDY    79  73  83 SW7       29.81S HX  82
OSHKOSH        CLOUDY    83  77  82 SW6       29.81F HX  92
6HR MIN TEMP:  72; 6HR MAX TEMP:  83; 6HR PCP:  0.06;

$$

WIZ032>034-041-042-053>061-241900-
SOUTHWEST WISCONSIN

CITY           SKY/WX    TMP DP  RH WIND       PRES   REMARKS
LA CROSSE      SUNNY     88  62  41 NW18      29.85R HX  88
6HR MIN TEMP:  77; 6HR MAX TEMP:  88;

SPARTA         MOSUNNY   87  74  64 W10G17    29.85R HX  95
6HR MIN TEMP:  73; 6HR MAX TEMP:  87;

VIROQUA        MOSUNNY   85  74  70 W12       29.88S HX  92
6HR MIN TEMP:  75; 6HR MAX TEMP:  85;

BOSCOBEL       CLOUDY    87  78  74 W8        29.85S HX 100
6HR MIN TEMP:  79; 6HR MAX TEMP:  87;

PRAIRIE DU CHI MOSUNNY   87  76  69 W7        29.85S HX  98
6HR MIN TEMP:  79; 6HR MAX TEMP:  87;

PLATTEVILLE    CLOUDY    85  81  89 W8        29.87S HX 101
6HR MIN TEMP:  76; 6HR MAX TEMP:  85;

$$

WIZ056-057-062-063-064-067-068-241900-
SOUTH CENTRAL WISCONSIN

CITY           SKY/WX    TMP DP  RH WIND       PRES   REMARKS
REEDSBURG      CLOUDY   N/A N/A N/A W8        29.84S
BARABOO/DELLS  CLOUDY    83  76  79 W9        29.85R HX  91
6HR MIN TEMP:  75; 6HR MAX TEMP:  85;

LONE ROCK      CLOUDY    83  77  82 W8        29.85R HX  92
6HR MIN TEMP:  77; 6HR MAX TEMP:  85;

MINERAL POINT  CLOUDY    86  79  79 W8        29.88S HX  99
MADISON        PTSUNNY   85  78  80 SW5       29.83F HX  96
6HR MIN TEMP:  75; 6HR MAX TEMP:  86;

MIDDLETON      PTSUNNY   90  78  68 SW5       29.85F HX 104
6HR MIN TEMP:  76; 6HR MAX TEMP:  90;

WATERTOWN      CLOUDY    86  79  80 SW12      29.84S HX  99
6HR MIN TEMP:  74; 6HR MAX TEMP:  87;

MONROE         CLOUDY    88  77  70 SW13      29.86S HX 100
JANESVILLE     MOSUNNY   91  77  62 SW13      29.85S HX 105
$$

WIZ051-052-058>065-066-070>072-241900-
SOUTHEAST WISCONSIN

CITY           SKY/WX    TMP DP  RH WIND       PRES   REMARKS
MILWAUKEE      PTSUNNY   91  76  61 SW20G28   29.84S HX 103
6HR MIN TEMP:  72; 6HR MAX TEMP:  91; 6HR PCP:  0.01;

WAUKESHA       PTSUNNY   84  75  74 SW12      29.86S HX  92
MILWAUKEE/TIMM PTSUNNY   88  73  62 SW14G21   29.85S HX  96
RACINE         CLOUDY    81  72  74 S10       29.86F HX  85
6HR MIN TEMP:  72; 6HR MAX TEMP:  86; 6HR PCP:  0.01;

BURLINGTON     CLOUDY    92  84  76 SW13      29.86R HX 119
6HR MIN TEMP:  73; 6HR MAX TEMP:  93;

KENOSHA        CLOUDY    90  77  65 SW14G22   29.86S HX 103
6HR MIN TEMP:  75; 6HR MAX TEMP:  91; 6HR PCP: TRACE;

FOND DU LAC    CLOUDY    83  78  85 SW5       29.83S HX  93
6HR MIN TEMP:  74; 6HR MAX TEMP:  83;

SHEBOYGAN      CLOUDY    74  71  91 S6        29.84S FOG
6HR MIN TEMP:  71; 6HR MAX TEMP:  74; 6HR PCP:  0.03;

WEST BEND      CLOUDY    86  75  70 SW13      29.84S HX  95
JUNEAU         CLOUDY    84  78  82 SW10      29.85F HX  94
6HR MIN TEMP:  71; 6HR MAX TEMP:  84;

$$

LSZ147-162-241900-
LAKE SUPERIOR

STATION/POSITION TIME  TEMP    WIND        PRES    WAVE
                       AIR SEA DIR/SP/G            HT/PER
                 (UTC) (F)     (DEG/KT/KT) (MB)    (FT/S)
W MID LAKE BUOY  1750   62 58  220/ 10/ 10 1006.7R   1/ 3
DEVILS ISLAND    1800   70     240/ 21/ 24 1007.6R
PORT WING        1600   73     260/  9/ 11 1008.1F
SAXON HARBOR     1700   80     280/  7/ 13 1007.8S
$$

LMZ867-665-643>646-241900-
LAKE MICHIGAN

STATION/POSITION TIME  TEMP    WIND        PRES    WAVE
                       AIR SEA DIR/SP/G            HT/PER
                 (UTC) (F)     (DEG/KT/KT) (MB)    (FT/S)
CHAMBERS ISLAND  1700   74     200/  5/ 10 1008.8S
S GRC1F1C2F2C3F3C4F4C5F5C6F6C7F7C8M1C9M2Ca!



USA.gov is the U.S. government's official web portal to all federal, state and local government web resources and services.